Find Starlink 32036

NORAD ID: 60141 Int'l Des: 2024-120 Owner: SPXS Country: US Constellation: starlink operational
LEOCIRCULAR

Live Position

Loading 3D Globe...

About Starlink 32036

Description loading...

Upcoming Passes

Passes for default location (London). Set your location on the main map for personalized predictions.

Altitude History

Loading altitude history...

Two-Line Element Set

1 60141U 24120G 26106.38178208 .00000267 00000-0 21156-4 0 9997
2 60141 53.1601 145.0894 0001282 67.5285 292.5851 15.30195991102229
Epoch: Apr 16, 2026 • Age: 27 hours

Current Status

Altitude 477.3 km
Velocity 7.63 km/s
Sub-Earth Point 34.26°N, 102.33°W
Launch Date Jun 27, 2024
Age 1.8 years
Type internet

Technical Details

Classification Payload
Mass 730.00 kg
Dry Mass 700.00 kg
Total Mass 730.00 kg
Length 0.30 m
Diameter 4.10 m
Span 29.00 m
Shape Box + pan
Manufacturer SPXS
Bus Type Starlink V2M
Phase Status In Orbit
Owner/State SPXS/US

Most Searched